Location: Lake Sonoma
(38.7200°N, 123.0564°W)
Time: 12:51:45
(UTC-08:00)

ISS - All Passes

Search period start: 20 December 2014 00:00
Search period end: 30 December 2014 00:00
Orbit: 404 x 414 km, 51.6° (Epoch: 20 December)

Date Brightness Start Highest point End Pass type
(mag) Time Alt. Az. Time Alt. Az. Time Alt. Az.
20 Dec - 12:24:04 10° SSE 12:25:36 13° SE 12:27:09 10° E daylight
20 Dec - 13:58:33 10° WSW 14:01:49 61° NW 14:05:05 10° NE daylight
20 Dec - 15:37:09 10° NW 15:38:56 14° NNW 15:40:44 10° NNE daylight
20 Dec - 18:52:08 10° NNW 18:54:24 17° NNE 18:56:40 10° ENE visible
20 Dec - 20:28:03 10° NW 20:31:20 79° SW 20:34:35 10° SE night (unlit)
21 Dec - 13:07:47 10° SW 13:11:03 69° SE 13:14:21 10° NE daylight
21 Dec - 14:45:31 10° WNW 14:47:55 18° NNW 14:50:20 10° NNE daylight
21 Dec - 18:01:45 10° NNW 18:03:22 13° NNE 18:04:58 10° NE visible
21 Dec - 19:37:19 10° NW 19:40:33 53° NE 19:43:44 10° ESE visible
21 Dec - 21:14:57 10° W 21:16:47 14° SW 21:18:37 10° SSW night (unlit)
22 Dec - 12:17:18 10° SSW 12:20:20 34° SE 12:23:21 10° ENE daylight
22 Dec - 13:54:03 10° W 13:56:56 27° NNW 13:59:48 10° NNE daylight
22 Dec - 17:11:34 10° N 17:12:14 10° NNE 17:12:54 10° NNE daylight
22 Dec - 18:46:40 10° NW 18:49:38 31° NNE 18:52:35 10° E visible
22 Dec - 20:23:19 10° WNW 20:26:09 27° SW 20:28:57 10° SSE night (unlit)
23 Dec - 11:27:19 10° S 11:29:38 18° SE 11:31:57 10° E daylight
23 Dec - 13:02:47 10° WSW 13:05:58 44° NW 13:09:09 10° NE daylight
23 Dec - 14:41:49 10° NW 14:43:12 12° NNW 14:44:36 10° N daylight
23 Dec - 17:56:03 10° NNW 17:58:37 20° NNE 18:01:09 10° ENE visible
23 Dec - 19:32:10 10° WNW 19:35:23 54° SW 19:38:34 10° SE visible
24 Dec - 12:11:43 10° SW 12:15:01 83° NW 12:18:20 10° NE daylight
24 Dec - 13:49:55 10° WNW 13:52:01 16° NNW 13:54:07 10° NNE daylight
24 Dec - 17:05:29 10° NNW 17:07:28 15° NNE 17:09:26 10° ENE daylight
24 Dec - 18:41:13 10° NW 18:44:30 75° NE 18:47:45 10° SE visible
25 Dec - 11:20:55 10° SSW 11:24:07 48° SE 11:27:19 10° ENE daylight
25 Dec - 12:58:11 10° W 13:00:51 22° NNW 13:03:30 10° NNE daylight
25 Dec - 16:14:59 10° N 16:16:13 12° NNE 16:17:26 10° NE daylight
25 Dec - 17:50:22 10° NW 17:53:30 40° NNE 17:56:36 10° ESE visible
25 Dec - 19:27:25 10° W 19:29:51 19° SW 19:32:16 10° S visible
26 Dec - 10:30:29 10° S 10:33:14 25° SE 10:36:00 10° ENE daylight
26 Dec - 12:06:39 10° W 12:09:42 34° NNW 12:12:45 10° NE daylight
26 Dec - 13:46:08 10° NNW 13:47:03 11° NNW 13:47:58 10° N daylight
26 Dec - 16:59:34 10° NNW 17:02:22 25° NNE 17:05:08 10° E daylight
26 Dec - 18:35:55 10° WNW 18:39:00 37° SW 18:42:02 10° SSE visible
27 Dec - 09:40:46 10° SSE 09:42:23 13° SE 09:44:00 10° E daylight
27 Dec - 11:15:19 10° WSW 11:18:35 60° NW 11:21:51 10° NE daylight
27 Dec - 12:53:55 10° NW 12:55:41 14° NNW 12:57:28 10° NNE daylight
27 Dec - 16:08:49 10° NNW 16:11:07 17° NNE 16:13:24 10° ENE daylight
27 Dec - 17:44:43 10° NW 17:48:00 78° SW 17:51:16 10° SE visible
28 Dec - 10:24:12 10° SW 10:27:30 70° SE 10:30:47 10° NE daylight
28 Dec - 12:01:57 10° WNW 12:04:21 18° NNW 12:06:45 10° NNE daylight
28 Dec - 15:18:06 10° NNW 15:19:45 13° NNE 15:21:23 10° NE daylight
28 Dec - 16:53:40 10° NW 16:56:54 54° NE 17:00:06 10° ESE daylight
28 Dec - 18:31:18 10° W 18:33:07 14° SW 18:34:55 10° SSW visible
29 Dec - 09:33:25 10° SSW 09:36:26 34° SE 09:39:28 10° ENE daylight
29 Dec - 11:10:09 10° W 11:13:01 27° NNW 11:15:54 10° NNE daylight
29 Dec - 14:27:35 10° N 14:28:17 11° NNE 14:28:59 10° NNE daylight
29 Dec - 16:02:41 10° NW 16:05:40 31° NNE 16:08:38 10° E daylight
29 Dec - 17:39:19 10° WNW 17:42:09 27° SW 17:44:57 10° SSE visible
